| time (UTC) | temp F | wind direction | speed MPH | gust MPH | rain 1hr in | rain 24hr in | rain mn in | humidity % | barometer mb |
| 20260901161104 | 87 | 223 | 0.0 | 0.0 | 0.00 | 0.06 | 0.00 | 70 | 1013.4 |
| 20260901160604 | 87 | 235 | 0.0 | 0.0 | 0.00 | 0.06 | 0.00 | 72 | 1013.4 |
| 20260901160104 | 86 | 242 | 0.0 | 0.0 | 0.00 | 0.06 | 0.00 | 70 | 1013.3 |
| 20260901155604 | 86 | 210 | 0.0 | 0.0 | 0.00 | 0.06 | 0.00 | 72 | 1013.2 |
| 20260901155104 | 86 | 247 | 0.0 | 0.0 | 0.00 | 0.06 | 0.00 | 72 | 1013.4 |
| 20260901154604 | 85 | 251 | 0.0 | 0.0 | 0.00 | 0.06 | 0.00 | 73 | 1013.5 |
| 20260901154104 | 85 | 259 | 0.0 | 0.0 | 0.00 | 0.06 | 0.00 | 73 | 1013.5 |
| 20260901153604 | 85 | 238 | 0.0 | 0.0 | 0.00 | 0.06 | 0.00 | 73 | 1013.5 |
| 20260901153104 | 85 | 245 | 0.0 | 0.0 | 0.00 | 0.06 | 0.00 | 74 | 1013.5 |
| 20260901152604 | 85 | 238 | 0.0 | 0.0 | 0.00 | 0.06 | 0.00 | 75 | 1013.6 |
| 20260901152104 | 84 | 234 | 0.0 | 0.0 | 0.00 | 0.06 | 0.00 | 77 | 1013.6 |
| 20260901151604 | 83 | 244 | 0.0 | 0.0 | 0.00 | 0.06 | 0.00 | 77 | 1013.6 |
| 20260901151104 | 83 | 216 | 0.0 | 0.0 | 0.00 | 0.06 | 0.00 | 78 | 1013.6 |
| 20260901150604 | 82 | 255 | 0.0 | 0.0 | 0.00 | 0.06 | 0.00 | 80 | 1013.6 |
| 20260901150104 | 82 | 168 | 0.0 | 0.0 | 0.00 | 0.06 | 0.00 | 80 | 1013.7 |
| 20260901145604 | 81 | 238 | 0.0 | 0.0 | 0.00 | 0.06 | 0.00 | 81 | 1013.8 |
| 20260901144604 | 80 | 256 | 0.0 | 0.0 | 0.00 | 0.06 | 0.00 | 82 | 1013.9 |
| 20260901144103 | 80 | 225 | 0.0 | 0.0 | 0.00 | 0.06 | 0.00 | 83 | 1013.9 |
| 20260901143604 | 80 | 248 | 0.0 | 0.0 | 0.00 | 0.06 | 0.00 | 83 | 1013.9 |
| 20260901143104 | 79 | 244 | 0.0 | 0.0 | 0.00 | 0.06 | 0.00 | 85 | 1014.0 |
| 20260901142604 | 79 | 261 | 0.0 | 0.0 | 0.00 | 0.06 | 0.00 | 85 | 1014.0 |
| 20260901141104 | 78 | 243 | 0.0 | 0.0 | 0.00 | 0.06 | 0.00 | 86 | 1014.0 |
| 20260901140604 | 78 | 250 | 0.0 | 0.0 | 0.00 | 0.06 | 0.00 | 87 | 1013.8 |
| 20260901140104 | 78 | 242 | 0.0 | 0.0 | 0.00 | 0.06 | 0.00 | 87 | 1013.6 |
| 20260901135604 | 77 | 240 | 0.0 | 0.0 | 0.00 | 0.06 | 0.00 | 87 | 1013.5 |
| 20260901135103 | 77 | 237 | 0.0 | 0.0 | 0.00 | 0.06 | 0.00 | 87 | 1013.5 |
| 20260901134104 | 77 | 264 | 0.0 | 0.0 | 0.00 | 0.06 | 0.00 | 88 | 1013.3 |
| 20260901133605 | 77 | 259 | 1.0 | 5.0 | 0.00 | 0.06 | 0.00 | 88 | 1013.1 |
| 20260901133103 | 76 | 251 | 0.0 | 2.0 | 0.00 | 0.06 | 0.00 | 89 | 1013.1 |
| 20260901132604 | 76 | 251 | 0.0 | 2.0 | 0.00 | 0.06 | 0.00 | 89 | 1013.1 |
| 20260901132104 | 76 | 251 | 1.0 | 3.0 | 0.00 | 0.06 | 0.00 | 89 | 1013.2 |
| 20260901131604 | 76 | 249 | 0.0 | 3.0 | 0.00 | 0.06 | 0.00 | 89 | 1013.1 |
| 20260901131104 | 76 | 245 | 0.0 | 0.0 | 0.00 | 0.06 | 0.00 | 89 | 1013.1 |
| 20260901130603 | 76 | 241 | 0.0 | 0.0 | 0.00 | 0.06 | 0.00 | 89 | 1013.2 |
| 20260901130104 | 76 | 248 | 0.0 | 0.0 | 0.00 | 0.06 | 0.00 | 89 | 1013.4 |
| 20260901125604 | 76 | 237 | 0.0 | 3.0 | 0.00 | 0.06 | 0.00 | 90 | 1013.4 |
| 20260901125104 | 76 | 254 | 1.0 | 3.0 | 0.00 | 0.06 | 0.00 | 90 | 1013.5 |
| 20260901124104 | 76 | 203 | 2.0 | 3.0 | 0.00 | 0.06 | 0.00 | 90 | 1013.5 |
| 20260901123604 | 75 | 239 | 2.0 | 3.0 | 0.00 | 0.06 | 0.00 | 90 | 1013.6 |
| 20260901123104 | 75 | 186 | 1.0 | 3.0 | 0.00 | 0.06 | 0.00 | 90 | 1013.6 |
| 20260901122604 | 75 | 243 | 3.0 | 6.0 | 0.00 | 0.06 | 0.00 | 90 | 1013.7 |
| 20260901122104 | 75 | 236 | 2.0 | 5.0 | 0.00 | 0.06 | 0.00 | 90 | 1013.7 |
| 20260901121604 | 75 | 246 | 1.0 | 5.0 | 0.00 | 0.06 | 0.00 | 90 | 1013.7 |
| 20260901121104 | 75 | 241 | 1.0 | 5.0 | 0.00 | 0.06 | 0.00 | 90 | 1013.6 |
| 20260901120103 | 75 | 239 | 2.0 | 5.0 | 0.00 | 0.06 | 0.00 | 90 | 1013.6 |
| 20260901115603 | 75 | 259 | 0.0 | 3.0 | 0.00 | 0.06 | 0.00 | 90 | 1013.6 |
| 20260901115104 | 75 | 259 | 2.0 | 3.0 | 0.00 | 0.06 | 0.00 | 90 | 1013.6 |
| 20260901114604 | 75 | 257 | 1.0 | 3.0 | 0.00 | 0.06 | 0.00 | 90 | 1013.4 |
| 20260901114104 | 75 | 248 | 2.0 | 3.0 | 0.00 | 0.06 | 0.00 | 90 | 1013.2 |
| 20260901113604 | 75 | 240 | 1.0 | 3.0 | 0.00 | 0.06 | 0.00 | 89 | 1013.2 |
| 20260901113104 | 75 | 261 | 0.0 | 3.0 | 0.00 | 0.06 | 0.00 | 89 | 1013.1 |
| 20260901112604 | 75 | 261 | 1.0 | 3.0 | 0.00 | 0.06 | 0.00 | 89 | 1013.1 |
| 20260901112103 | 75 | 261 | 2.0 | 3.0 | 0.00 | 0.06 | 0.00 | 89 | 1013.1 |
| 20260901111606 | 75 | 246 | 1.0 | 3.0 | 0.00 | 0.06 | 0.00 | 89 | 1013.0 |
| 20260901111103 | 75 | 242 | 1.0 | 3.0 | 0.00 | 0.06 | 0.00 | 89 | 1013.1 |
| 20260901110604 | 75 | 242 | 2.0 | 3.0 | 0.00 | 0.06 | 0.00 | 89 | 1013.1 |
| 20260901105604 | 75 | 258 | 2.0 | 3.0 | 0.00 | 0.06 | 0.00 | 89 | 1013.1 |
| 20260901105104 | 75 | 252 | 2.0 | 3.0 | 0.00 | 0.06 | 0.00 | 88 | 1013.1 |
| 20260901104604 | 76 | 241 | 1.0 | 3.0 | 0.00 | 0.06 | 0.00 | 88 | 1013.1 |
| 20260901104103 | 76 | 239 | 2.0 | 3.0 | 0.00 | 0.06 | 0.00 | 89 | 1013.0 |
| 20260901103603 | 76 | 241 | 2.0 | 5.0 | 0.00 | 0.06 | 0.00 | 88 | 1012.9 |
| 20260901103103 | 76 | 250 | 1.0 | 3.0 | 0.00 | 0.06 | 0.00 | 88 | 1012.8 |
| 20260901102604 | 76 | 254 | 1.0 | 3.0 | 0.00 | 0.06 | 0.00 | 88 | 1012.9 |
| 20260901102104 | 76 | 249 | 1.0 | 3.0 | 0.00 | 0.06 | 0.00 | 88 | 1013.0 |
| 20260901101604 | 76 | 248 | 1.0 | 3.0 | 0.00 | 0.06 | 0.00 | 88 | 1013.0 |
| 20260901101104 | 76 | 249 | 3.0 | 3.0 | 0.00 | 0.06 | 0.00 | 88 | 1013.0 |
| 20260901100603 | 76 | 231 | 1.0 | 8.0 | 0.00 | 0.06 | 0.00 | 88 | 1012.9 |
| 20260901100104 | 76 | 230 | 3.0 | 5.0 | 0.00 | 0.06 | 0.00 | 88 | 1012.9 |
| 20260901095604 | 76 | 234 | 1.0 | 5.0 | 0.00 | 0.06 | 0.00 | 88 | 1012.9 |
| 20260901095104 | 76 | 259 | 2.0 | 5.0 | 0.00 | 0.06 | 0.00 | 88 | 1012.9 |
| 20260901094604 | 76 | 226 | 3.0 | 5.0 | 0.00 | 0.06 | 0.00 | 88 | 1013.0 |
| 20260901094104 | 76 | 241 | 2.0 | 6.0 | 0.00 | 0.06 | 0.00 | 88 | 1013.0 |
| 20260901093604 | 76 | 239 | 2.0 | 5.0 | 0.00 | 0.06 | 0.00 | 88 | 1012.9 |
| 20260901093105 | 76 | 254 | 2.0 | 7.0 | 0.00 | 0.06 | 0.00 | 88 | 1012.9 |
| 20260901092603 | 76 | 224 | 2.0 | 5.0 | 0.00 | 0.06 | 0.00 | 88 | 1012.8 |
| 20260901092103 | 76 | 257 | 2.0 | 6.0 | 0.00 | 0.06 | 0.00 | 89 | 1012.6 |
| 20260901091604 | 76 | 240 | 3.0 | 5.0 | 0.00 | 0.06 | 0.00 | 89 | 1012.5 |
| 20260901091104 | 76 | 226 | 4.0 | 7.0 | 0.00 | 0.06 | 0.00 | 89 | 1012.5 |
| 20260901090104 | 76 | 239 | 3.0 | 6.0 | 0.00 | 0.06 | 0.00 | 89 | 1012.5 |
| 20260901085604 | 76 | 238 | 2.0 | 7.0 | 0.00 | 0.06 | 0.00 | 89 | 1012.5 |
| 20260901085104 | 76 | 244 | 4.0 | 10.0 | 0.00 | 0.06 | 0.00 | 89 | 1012.5 |
| 20260901084603 | 76 | 243 | 2.0 | 6.0 | 0.00 | 0.06 | 0.00 | 90 | 1012.5 |
| 20260901084104 | 76 | 252 | 2.0 | 5.0 | 0.00 | 0.06 | 0.00 | 90 | 1012.5 |
| 20260901083603 | 76 | 249 | 1.0 | 5.0 | 0.00 | 0.06 | 0.00 | 90 | 1012.5 |
| 20260901083103 | 76 | 256 | 2.0 | 5.0 | 0.00 | 0.06 | 0.00 | 90 | 1012.5 |
| 20260901081604 | 76 | 226 | 2.0 | 5.0 | 0.00 | 0.06 | 0.00 | 90 | 1012.5 |
| 20260901080604 | 76 | 240 | 2.0 | 6.0 | 0.00 | 0.06 | 0.00 | 90 | 1012.5 |
| 20260901080103 | 76 | 234 | 2.0 | 3.0 | 0.00 | 0.06 | 0.00 | 90 | 1012.5 |
| 20260901075104 | 75 | 256 | 1.0 | 5.0 | 0.00 | 0.06 | 0.00 | 90 | 1012.6 |
| 20260901074604 | 75 | 253 | 1.0 | 3.0 | 0.00 | 0.06 | 0.00 | 89 | 1012.5 |
| 20260901074103 | 75 | 238 | 1.0 | 3.0 | 0.00 | 0.06 | 0.00 | 89 | 1012.6 |
| 20260901073603 | 75 | 225 | 1.0 | 3.0 | 0.00 | 0.06 | 0.00 | 89 | 1012.6 |
| 20260901073103 | 75 | 247 | 1.0 | 3.0 | 0.00 | 0.06 | 0.00 | 89 | 1012.6 |
| 20260901072603 | 75 | 254 | 1.0 | 3.0 | 0.00 | 0.06 | 0.00 | 89 | 1012.6 |
| 20260901072104 | 75 | 254 | 0.0 | 1.0 | 0.00 | 0.06 | 0.00 | 89 | 1012.6 |
| 20260901071607 | 75 | 254 | 0.0 | 1.0 | 0.00 | 0.06 | 0.00 | 89 | 1012.6 |
| 20260901071103 | 75 | 254 | 1.0 | 3.0 | 0.00 | 0.06 | 0.00 | 89 | 1012.6 |
| 20260901070603 | 76 | 254 | 1.0 | 2.0 | 0.00 | 0.06 | 0.00 | 89 | 1012.6 |
| 20260901070104 | 76 | 253 | 1.0 | 2.0 | 0.00 | 0.06 | 0.00 | 89 | 1012.6 |
| 20260901065604 | 76 | 253 | 1.0 | 3.0 | 0.00 | 0.06 | 0.00 | 89 | 1012.6 |
| 20260901065104 | 76 | 247 | 1.0 | 2.0 | 0.00 | 0.06 | 0.00 | 89 | 1012.6 |
| 20260901064604 | 76 | 247 | 1.0 | 2.0 | 0.00 | 0.06 | 0.00 | 89 | 1012.6 |
| 20260901064103 | 76 | 247 | 1.0 | 3.0 | 0.00 | 0.06 | 0.00 | 88 | 1012.6 |
| 20260901063604 | 76 | 247 | 1.0 | 3.0 | 0.00 | 0.06 | 0.00 | 88 | 1012.6 |
| 20260901063106 | 76 | 244 | 1.0 | 2.0 | 0.00 | 0.06 | 0.00 | 88 | 1012.6 |
| 20260901062605 | 76 | 244 | 1.0 | 3.0 | 0.00 | 0.06 | 0.00 | 88 | 1012.6 |
| 20260901062105 | 76 | 244 | 1.0 | 2.0 | 0.00 | 0.06 | 0.00 | 88 | 1012.7 |
| 20260901061605 | 76 | 244 | 2.0 | 3.0 | 0.00 | 0.06 | 0.00 | 88 | 1012.7 |
| 20260901060605 | 76 | 247 | 2.0 | 5.0 | 0.00 | 0.06 | 0.00 | 88 | 1012.9 |
| 20260901060104 | 76 | 244 | 1.0 | 3.0 | 0.00 | 0.06 | 0.00 | 88 | 1012.8 |
| 20260901055604 | 76 | 244 | 0.0 | 2.0 | 0.00 | 0.06 | 0.00 | 88 | 1012.9 |
| 20260901055105 | 76 | 259 | 1.0 | 3.0 | 0.00 | 0.06 | 0.00 | 88 | 1012.9 |
| 20260901054605 | 76 | 186 | 2.0 | 5.0 | 0.00 | 0.06 | 0.00 | 88 | 1012.9 |
| 20260901053604 | 76 | 253 | 1.0 | 5.0 | 0.00 | 0.06 | 0.00 | 88 | 1013.0 |
| 20260901053104 | 76 | 246 | 1.0 | 3.0 | 0.00 | 0.06 | 0.00 | 87 | 1013.1 |
| 20260901052605 | 76 | 246 | 1.0 | 3.0 | 0.00 | 0.06 | 0.00 | 87 | 1013.1 |
| 20260901052104 | 76 | 153 | 0.0 | 3.0 | 0.00 | 0.06 | 0.00 | 87 | 1013.0 |
| 20260901051607 | 76 | 223 | 1.0 | 3.0 | 0.00 | 0.06 | 0.00 | 87 | 1013.0 |
| 20260901051104 | 76 | 236 | 2.0 | 3.0 | 0.00 | 0.06 | 0.00 | 87 | 1013.1 |
| 20260901050604 | 76 | 244 | 1.0 | 2.0 | 0.00 | 0.06 | 0.00 | 87 | 1012.9 |
| 20260901050104 | 76 | 244 | 1.0 | 3.0 | 0.00 | 0.06 | 0.00 | 87 | 1012.8 |
| 20260901045604 | 76 | 241 | 2.0 | 3.0 | 0.00 | 0.06 | 0.00 | 87 | 1012.9 |
| 20260901045105 | 76 | 181 | 1.0 | 5.0 | 0.00 | 0.06 | 0.00 | 87 | 1012.8 |
| 20260901044105 | 76 | 237 | 1.0 | 5.0 | 0.00 | 0.06 | 0.00 | 87 | 1012.7 |
| 20260901043605 | 76 | 225 | 2.0 | 3.0 | 0.00 | 0.06 | 0.00 | 87 | 1012.6 |
| 20260901043105 | 76 | 216 | 1.0 | 2.0 | 0.00 | 0.06 | 0.00 | 86 | 1012.6 |
| 20260901042605 | 76 | 201 | 2.0 | 3.0 | 0.00 | 0.06 | 0.00 | 86 | 1012.6 |
| 20260901042104 | 76 | 261 | 2.0 | 3.0 | 0.00 | 0.06 | 0.00 | 86 | 1012.7 |
| 20260901041604 | 76 | 218 | 1.0 | 2.0 | 0.00 | 0.06 | 0.00 | 87 | 1012.7 |
| 20260901041104 | 76 | 220 | 2.0 | 5.0 | 0.00 | 0.06 | 0.00 | 87 | 1012.9 |
| 20260901040604 | 76 | 245 | 2.0 | 5.0 | 0.00 | 0.06 | 0.00 | 87 | 1012.8 |
| 20260901040104 | 76 | 248 | 1.0 | 3.0 | 0.00 | 0.06 | 0.00 | 87 | 1013.1 |
| 20260901035604 | 76 | 232 | 3.0 | 5.0 | 0.00 | 0.06 | 0.06 | 87 | 1013.1 |
| 20260901035105 | 76 | 228 | 1.0 | 7.0 | 0.00 | 0.06 | 0.06 | 87 | 1013.1 |
| 20260901034605 | 76 | 243 | 2.0 | 3.0 | 0.00 | 0.06 | 0.06 | 87 | 1013.1 |
| 20260901034105 | 76 | 246 | 1.0 | 3.0 | 0.00 | 0.06 | 0.06 | 87 | 1013.0 |
| 20260901033605 | 75 | 245 | 1.0 | 6.0 | 0.00 | 0.06 | 0.06 | 87 | 1012.9 |
| 20260901033105 | 75 | 243 | 1.0 | 5.0 | 0.00 | 0.06 | 0.06 | 87 | 1013.0 |
| 20260901032605 | 75 | 247 | 1.0 | 3.0 | 0.00 | 0.06 | 0.06 | 87 | 1013.0 |
| 20260901032105 | 75 | 199 | 1.0 | 3.0 | 0.00 | 0.06 | 0.06 | 88 | 1013.0 |
| 20260901031604 | 75 | 238 | 1.0 | 3.0 | 0.00 | 0.06 | 0.06 | 88 | 1013.0 |
| 20260901031104 | 75 | 241 | 2.0 | 5.0 | 0.00 | 0.06 | 0.06 | 88 | 1013.1 |
| 20260901030105 | 74 | 221 | 2.0 | 3.0 | 0.00 | 0.06 | 0.06 | 88 | 1013.1 |
| 20260901025604 | 74 | 240 | 2.0 | 3.0 | 0.00 | 0.06 | 0.06 | 88 | 1013.0 |
| 20260901025105 | 74 | 252 | 1.0 | 3.0 | 0.00 | 0.06 | 0.06 | 88 | 1013.0 |
| 20260901024604 | 74 | 201 | 2.0 | 7.0 | 0.00 | 0.06 | 0.06 | 89 | 1013.0 |
| 20260901024105 | 73 | 211 | 2.0 | 3.0 | 0.00 | 0.06 | 0.06 | 88 | 1013.1 |
| 20260901023604 | 73 | 242 | 2.0 | 5.0 | 0.00 | 0.06 | 0.06 | 88 | 1013.1 |
| 20260901023105 | 73 | 256 | 1.0 | 5.0 | 0.00 | 0.06 | 0.06 | 88 | 1013.1 |
| 20260901022104 | 73 | 227 | 2.0 | 5.0 | 0.00 | 0.06 | 0.06 | 88 | 1013.1 |
| 20260901021604 | 73 | 237 | 1.0 | 5.0 | 0.00 | 0.06 | 0.06 | 88 | 1013.1 |
| 20260901021105 | 73 | 197 | 1.0 | 2.0 | 0.00 | 0.06 | 0.06 | 88 | 1013.1 |
| 20260901020604 | 73 | 197 | 1.0 | 3.0 | 0.00 | 0.06 | 0.06 | 88 | 1013.1 |
| 20260901020104 | 73 | 197 | 1.0 | 2.0 | 0.00 | 0.06 | 0.06 | 88 | 1013.1 |
| 20260901015605 | 73 | 197 | 0.0 | 2.0 | 0.00 | 0.06 | 0.06 | 87 | 1013.1 |
| 20260901015104 | 73 | 195 | 0.0 | 1.0 | 0.00 | 0.06 | 0.06 | 87 | 1013.1 |
| 20260901014104 | 73 | 196 | 0.0 | 0.0 | 0.00 | 0.06 | 0.06 | 87 | 1013.1 |
| 20260901013604 | 73 | 196 | 0.0 | 0.0 | 0.00 | 0.06 | 0.06 | 87 | 1013.1 |
| 20260901013105 | 73 | 196 | 0.0 | 0.0 | 0.00 | 0.06 | 0.06 | 87 | 1013.0 |
| 20260901012604 | 73 | 196 | 0.0 | 0.0 | 0.00 | 0.06 | 0.06 | 87 | 1013.1 |
| 20260901012104 | 73 | 196 | 0.0 | 0.0 | 0.00 | 0.06 | 0.06 | 87 | 1013.1 |
| 20260901011604 | 73 | 197 | 0.0 | 0.0 | 0.00 | 0.06 | 0.06 | 87 | 1013.1 |
| 20260901011104 | 73 | 197 | 0.0 | 1.0 | 0.00 | 0.06 | 0.06 | 87 | 1013.1 |
| 20260901010604 | 73 | 197 | 0.0 | 1.0 | 0.00 | 0.06 | 0.06 | 87 | 1013.1 |
| 20260901010104 | 73 | 197 | 0.0 | 1.0 | 0.00 | 0.06 | 0.06 | 87 | 1012.9 |
| 20260901005104 | 74 | 197 | 0.0 | 2.0 | 0.00 | 0.06 | 0.06 | 87 | 1012.6 |
| 20260901004104 | 74 | 194 | 0.0 | 1.0 | 0.00 | 0.06 | 0.06 | 87 | 1012.5 |
| 20260901003105 | 74 | 194 | 0.0 | 2.0 | 0.01 | 0.06 | 0.06 | 87 | 1012.3 |
| 20260901002605 | 74 | 194 | 1.0 | 2.0 | 0.01 | 0.06 | 0.06 | 87 | 1012.2 |
| 20260901002105 | 74 | 194 | 1.0 | 2.0 | 0.01 | 0.06 | 0.06 | 86 | 1012.3 |
| 20260901001604 | 74 | 194 | 1.0 | 2.0 | 0.01 | 0.06 | 0.06 | 86 | 1012.4 |
| 20260901001104 | 74 | 195 | 1.0 | 2.0 | 0.01 | 0.06 | 0.06 | 86 | 1012.6 |
| 20260901000105 | 74 | 194 | 1.0 | 2.0 | 0.01 | 0.06 | 0.06 | 86 | 1012.6 |
| 20260831235605 | 74 | 192 | 1.0 | 2.0 | 0.01 | 0.06 | 0.06 | 86 | 1012.6 |
| 20260831234104 | 74 | 186 | 1.0 | 2.0 | 0.02 | 0.06 | 0.06 | 86 | 1012.6 |
| 20260831233604 | 75 | 185 | 1.0 | 2.0 | 0.02 | 0.06 | 0.06 | 86 | 1012.6 |
| 20260831233104 | 75 | 184 | 1.0 | 3.0 | 0.01 | 0.05 | 0.05 | 86 | 1012.5 |
| 20260831232604 | 75 | 186 | 1.0 | 3.0 | 0.01 | 0.05 | 0.05 | 87 | 1012.6 |
| 20260831232104 | 75 | 248 | 1.0 | 3.0 | 0.01 | 0.05 | 0.05 | 87 | 1012.7 |
| 20260831231104 | 75 | 154 | 3.0 | 5.0 | 0.02 | 0.05 | 0.05 | 86 | 1012.7 |
| 20260831230604 | 75 | 158 | 1.0 | 3.0 | 0.02 | 0.05 | 0.05 | 86 | 1012.6 |
| 20260831230104 | 75 | 172 | 2.0 | 5.0 | 0.03 | 0.05 | 0.05 | 86 | 1012.7 |
| 20260831225604 | 76 | 239 | 3.0 | 6.0 | 0.03 | 0.05 | 0.05 | 86 | 1012.9 |
| 20260831225104 | 76 | 242 | 2.0 | 7.0 | 0.02 | 0.04 | 0.04 | 86 | 1012.8 |
| 20260831224604 | 76 | 181 | 3.0 | 7.0 | 0.03 | 0.05 | 0.04 | 85 | 1012.9 |
| 20260831224104 | 76 | 221 | 2.0 | 6.0 | 0.03 | 0.05 | 0.04 | 85 | 1013.0 |
| 20260831223604 | 77 | 211 | 3.0 | 9.0 | 0.04 | 0.05 | 0.04 | 85 | 1013.2 |
| 20260831223104 | 77 | 223 | 3.0 | 7.0 | 0.04 | 0.05 | 0.04 | 83 | 1013.2 |
| 20260831222604 | 77 | 170 | 4.0 | 9.0 | 0.04 | 0.06 | 0.04 | 83 | 1013.4 |
| 20260831220605 | 80 | 206 | 2.0 | 5.0 | 0.03 | 0.05 | 0.03 | 80 | 1014.1 |
| 20260831220104 | 80 | 209 | 2.0 | 5.0 | 0.02 | 0.04 | 0.02 | 79 | 1014.2 |
| 20260831215604 | 81 | 225 | 3.0 | 7.0 | 0.02 | 0.04 | 0.02 | 78 | 1014.3 |
| 20260831215105 | 81 | 226 | 1.0 | 3.0 | 0.02 | 0.04 | 0.02 | 76 | 1014.4 |
| 20260831214604 | 82 | 203 | 1.0 | 3.0 | 0.01 | 0.03 | 0.01 | 75 | 1014.7 |
| 20260831214105 | 82 | 204 | 1.0 | 3.0 | 0.01 | 0.03 | 0.01 | 75 | 1014.6 |
| 20260831213604 | 82 | 211 | 1.0 | 3.0 | 0.00 | 0.02 | 0.00 | 73 | 1014.3 |
| 20260831213105 | 83 | 203 | 1.0 | 3.0 | 0.00 | 0.02 | 0.00 | 72 | 1014.6 |
| 20260831212604 | 83 | 226 | 3.0 | 5.0 | 0.00 | 0.02 | 0.00 | 70 | 1014.6 |
| 20260831212105 | 84 | 226 | 3.0 | 7.0 | 0.00 | 0.02 | 0.00 | 69 | 1014.6 |
| 20260831211104 | 84 | 242 | 2.0 | 7.0 | 0.00 | 0.02 | 0.00 | 66 | 1014.8 |
| 20260831210604 | 85 | 225 | 2.0 | 7.0 | 0.00 | 0.02 | 0.00 | 65 | 1014.7 |
| 20260831210104 | 85 | 207 | 3.0 | 6.0 | 0.00 | 0.02 | 0.00 | 64 | 1014.8 |
| 20260831205605 | 85 | 230 | 3.0 | 3.0 | 0.00 | 0.02 | 0.00 | 63 | 1014.9 |
| 20260831205104 | 86 | 217 | 2.0 | 5.0 | 0.00 | 0.02 | 0.00 | 63 | 1014.9 |
| 20260831204605 | 86 | 194 | 1.0 | 3.0 | 0.00 | 0.02 | 0.00 | 63 | 1014.8 |
| 20260831204104 | 86 | 207 | 1.0 | 3.0 | 0.00 | 0.02 | 0.00 | 62 | 1014.6 |
| 20260831203604 | 86 | 195 | 1.0 | 3.0 | 0.00 | 0.02 | 0.00 | 61 | 1014.3 |
| 20260831203105 | 87 | 195 | 2.0 | 3.0 | 0.00 | 0.02 | 0.00 | 61 | 1014.3 |
| 20260831202104 | 87 | 220 | 2.0 | 3.0 | 0.00 | 0.02 | 0.00 | 60 | 1014.3 |
| 20260831201604 | 87 | 226 | 3.0 | 7.0 | 0.00 | 0.02 | 0.00 | 59 | 1014.2 |
| 20260831201104 | 88 | 207 | 4.0 | 7.0 | 0.00 | 0.02 | 0.00 | 59 | 1014.3 |
| 20260831200604 | 88 | 170 | 2.0 | 5.0 | 0.00 | 0.02 | 0.00 | 59 | 1014.4 |
| 20260831200104 | 88 | 177 | 2.0 | 3.0 | 0.00 | 0.02 | 0.00 | 58 | 1014.5 |
| 20260831195604 | 88 | 195 | 2.0 | 5.0 | 0.00 | 0.02 | 0.00 | 58 | 1014.7 |
| 20260831195104 | 88 | 195 | 2.0 | 5.0 | 0.00 | 0.02 | 0.00 | 60 | 1014.7 |
| 20260831194605 | 88 | 223 | 1.0 | 3.0 | 0.00 | 0.02 | 0.00 | 61 | 1014.8 |
| 20260831194104 | 87 | 235 | 2.0 | 3.0 | 0.00 | 0.02 | 0.00 | 61 | 1014.7 |
| 20260831193604 | 87 | 179 | 2.0 | 5.0 | 0.00 | 0.02 | 0.00 | 61 | 1014.7 |
| 20260831193104 | 87 | 147 | 1.0 | 2.0 | 0.00 | 0.02 | 0.00 | 61 | 1014.7 |
| 20260831192604 | 87 | 144 | 1.0 | 3.0 | 0.00 | 0.02 | 0.00 | 61 | 1014.7 |
| 20260831191604 | 87 | 227 | 2.0 | 5.0 | 0.00 | 0.02 | 0.00 | 61 | 1014.6 |
| 20260831191104 | 87 | 215 | 2.0 | 5.0 | 0.00 | 0.02 | 0.00 | 63 | 1014.6 |
| 20260831190604 | 87 | 248 | 1.0 | 5.0 | 0.00 | 0.02 | 0.00 | 63 | 1014.7 |
| 20260831190105 | 86 | 183 | 2.0 | 5.0 | 0.00 | 0.02 | 0.00 | 62 | 1014.8 |
| 20260831185604 | 86 | 175 | 2.0 | 3.0 | 0.00 | 0.02 | 0.00 | 63 | 1014.8 |
| 20260831185104 | 86 | 226 | 3.0 | 6.0 | 0.00 | 0.02 | 0.00 | 63 | 1014.8 |
| 20260831184604 | 85 | 188 | 4.0 | 6.0 | 0.00 | 0.02 | 0.00 | 65 | 1014.8 |
| 20260831184104 | 85 | 268 | 1.0 | 3.0 | 0.00 | 0.02 | 0.00 | 66 | 1014.8 |
| 20260831183604 | 84 | 253 | 0.0 | 0.0 | 0.00 | 0.02 | 0.00 | 67 | 1014.9 |
| 20260831183104 | 84 | 246 | 0.0 | 0.0 | 0.00 | 0.02 | 0.00 | 66 | 1014.9 |
| 20260831182604 | 84 | 193 | 0.0 | 0.0 | 0.00 | 0.02 | 0.00 | 69 | 1014.9 |
| 20260831182104 | 83 | 243 | 0.0 | 0.0 | 0.00 | 0.02 | 0.00 | 69 | 1014.8 |
| 20260831181604 | 83 | 243 | 0.0 | 0.0 | 0.00 | 0.02 | 0.00 | 70 | 1014.9 |
| 20260831181104 | 83 | 273 | 0.0 | 0.0 | 0.00 | 0.02 | 0.00 | 71 | 1015.0 |
| 20260831180605 | 82 | 229 | 0.0 | 0.0 | 0.00 | 0.02 | 0.00 | 73 | 1014.9 |
| 20260831180105 | 82 | 189 | 0.0 | 0.0 | 0.00 | 0.02 | 0.00 | 74 | 1015.1 |
| 20260831175603 | 81 | 242 | 0.0 | 0.0 | 0.00 | 0.02 | 0.00 | 73 | 1015.1 |
| 20260831175104 | 81 | 239 | 0.0 | 0.0 | 0.00 | 0.02 | 0.00 | 73 | 1015.2 |
| 20260831174604 | 81 | 240 | 0.0 | 0.0 | 0.00 | 0.02 | 0.00 | 74 | 1015.4 |
| 20260831174104 | 81 | 209 | 0.0 | 0.0 | 0.00 | 0.02 | 0.00 | 74 | 1015.3 |
| 20260831173605 | 80 | 209 | 0.0 | 0.0 | 0.00 | 0.02 | 0.00 | 74 | 1015.2 |
| 20260831173104 | 80 | 178 | 0.0 | 0.0 | 0.00 | 0.02 | 0.00 | 75 | 1014.9 |
| 20260831172605 | 80 | 173 | 0.0 | 0.0 | 0.00 | 0.02 | 0.00 | 75 | 1014.9 |
| 20260831172104 | 80 | 174 | 0.0 | 0.0 | 0.00 | 0.02 | 0.00 | 75 | 1014.8 |
| 20260831171104 | 80 | 249 | 0.0 | 0.0 | 0.00 | 0.02 | 0.00 | 75 | 1015.4 |
| 20260831170604 | 80 | 249 | 0.0 | 0.0 | 0.00 | 0.02 | 0.00 | 75 | 1015.8 |
| 20260831170106 | 80 | 249 | 0.0 | 0.0 | 0.00 | 0.02 | 0.00 | 74 | 1015.9 |
| 20260831165604 | 80 | 249 | 0.0 | 0.0 | 0.00 | 0.02 | 0.00 | 73 | 1016.0 |
| 20260831165104 | 80 | 250 | 0.0 | 0.0 | 0.00 | 0.02 | 0.00 | 73 | 1016.2 |
| 20260831164604 | 80 | 250 | 0.0 | 0.0 | 0.00 | 0.02 | 0.00 | 73 | 1016.4 |
| 20260831164104 | 80 | 247 | 0.0 | 0.0 | 0.00 | 0.02 | 0.00 | 74 | 1016.4 |
| 20260831163604 | 81 | 265 | 0.0 | 0.0 | 0.00 | 0.02 | 0.00 | 74 | 1016.4 |
| 20260831162604 | 81 | 259 | 0.0 | 0.0 | 0.00 | 0.02 | 0.00 | 74 | 1016.5 |
| 20260831161604 | 81 | 259 | 0.0 | 0.0 | 0.00 | 0.02 | 0.00 | 74 | 1016.5 |